TimeEST,TemperatureF,Dew PointF,Humidity,Sea Level PressureIn,VisibilityMPH,Wind Direction,Wind SpeedMPH,Gust SpeedMPH,PrecipitationIn,Events,Conditions,WindDirDegrees,DateUTC
12:56 AM,54.0,53.1,97,29.74,10.0,NNW,15.0,-,0.07,,Overcast,340,2013-02-08 05:56:00
1:43 AM,51.8,50.0,94,29.75,8.0,NW,12.7,-,N/A,,Overcast,320,2013-02-08 06:43:00
1:56 AM,52.0,50.0,93,29.75,10.0,NNW,13.8,-,N/A,,Overcast,330,2013-02-08 06:56:00
2:56 AM,50.0,48.0,93,29.78,10.0,NW,11.5,-,N/A,,Overcast,310,2013-02-08 07:56:00
3:56 AM,50.0,48.0,93,29.80,7.0,NW,12.7,-,N/A,,Overcast,320,2013-02-08 08:56:00
4:56 AM,48.0,46.9,96,29.82,8.0,NW,13.8,-,N/A,,Overcast,320,2013-02-08 09:56:00
5:56 AM,48.0,46.0,93,29.86,10.0,NW,11.5,20.7,N/A,,Overcast,320,2013-02-08 10:56:00
6:56 AM,48.0,45.0,89,29.88,10.0,NNW,12.7,-,N/A,,Overcast,330,2013-02-08 11:56:00
7:56 AM,48.9,45.0,86,29.91,10.0,NW,8.1,-,N/A,,Mostly Cloudy,310,2013-02-08 12:56:00
8:56 AM,48.9,45.0,86,29.94,10.0,WNW,8.1,-,N/A,,Overcast,300,2013-02-08 13:56:00
9:43 AM,51.8,46.4,82,29.95,10.0,WNW,6.9,-,N/A,,Scattered Clouds,290,2013-02-08 14:43:00
9:56 AM,53.1,46.0,77,29.95,10.0,WNW,6.9,-,N/A,,Scattered Clouds,290,2013-02-08 14:56:00
10:56 AM,57.0,46.0,67,29.96,10.0,WNW,8.1,-,N/A,,Scattered Clouds,300,2013-02-08 15:56:00
11:56 AM,59.0,46.0,62,29.94,10.0,WNW,8.1,-,N/A,,Scattered Clouds,300,2013-02-08 16:56:00
12:56 PM,61.0,46.0,58,29.94,10.0,WNW,6.9,-,N/A,,Partly Cloudy,290,2013-02-08 17:56:00
1:56 PM,63.0,46.9,56,29.93,10.0,NW,9.2,-,N/A,,Partly Cloudy,320,2013-02-08 18:56:00
2:56 PM,64.0,46.0,52,29.92,10.0,NW,6.9,-,N/A,,Partly Cloudy,320,2013-02-08 19:56:00
3:56 PM,64.0,46.0,52,29.92,10.0,West,12.7,18.4,N/A,,Partly Cloudy,280,2013-02-08 20:56:00
4:56 PM,63.0,46.0,54,29.93,10.0,West,12.7,-,N/A,,Partly Cloudy,280,2013-02-08 21:56:00
5:56 PM,61.0,46.9,60,29.94,10.0,West,10.4,18.4,N/A,,Scattered Clouds,270,2013-02-08 22:56:00
6:56 PM,57.9,46.9,67,29.96,10.0,WNW,5.8,-,N/A,,Partly Cloudy,300,2013-02-08 23:56:00
7:56 PM,57.9,48.0,70,30.00,10.0,WNW,5.8,-,N/A,,Mostly Cloudy,300,2013-02-09 00:56:00
8:56 PM,57.0,48.0,72,30.02,10.0,West,5.8,-,N/A,,Mostly Cloudy,270,2013-02-09 01:56:00
9:56 PM,54.0,48.0,80,30.04,10.0,West,5.8,-,N/A,,Clear,280,2013-02-09 02:56:00
10:56 PM,53.1,48.0,83,30.05,10.0,WNW,4.6,-,N/A,,Partly Cloudy,290,2013-02-09 03:56:00
11:56 PM,52.0,48.0,86,30.07,10.0,WNW,6.9,-,N/A,,Clear,300,2013-02-09 04:56:00